{"data":{"norad_id":48132,"intl_designator":"2021-027AS","name":"STARLINK-2474","alt_names":[],"object_type":"PAYLOAD","status":"ACTIVE","operator":null,"country":"US","launch_date":"2021-04-07","launch_site_code":"AFETR","launch_vehicle":null,"mission":null,"orbit_class":"UNKNOWN","rcs_meters":null,"size_class":null,"mass_kg":null,"dimensions":null,"purposes":["comms"],"wikipedia_slug":null,"has_3d_model":false,"image_url":null,"decayed_at":null,"tle_current":{"epoch":"2026-05-25T02:32:30.102144Z","epoch_age_seconds":69489,"freshness":"FRESH","line1":"1 48132U 21027AS  26145.10590396 -.00000689  00000+0 -10451-4 0  9990","line2":"2 48132  53.1569 172.3658 0001248  79.8301 280.2841 15.31701413284177","mean_motion":15.31701413,"eccentricity":0.0001248,"inclination_deg":53.1569,"raan_deg":172.3658,"arg_perigee_deg":79.8301,"mean_anomaly_deg":280.2841,"bstar":-1.0451e-5,"rev_number":28417,"period_min":94.013101233589,"perigee_km":469.88104382607,"apogee_km":471.59052247275,"semimajor_km":6848.8727831494,"source":"CELESTRAK","updated_at":"2026-05-25T13:38:16.648528Z"}}}